Погода в Малом Верево

Россия / Санкт-Петербург и Ленинградская область     59°36′50″N   30°09′53″E
В апреле 2022 года жителям России запретили посещать сайт meteo.paraplan.net по решению Генеральной прокуратуры. Аудитория сайта уменьшилась в 10 раз. Владельцы сайта не видят смысла в поддержке погодного сервера в таких условиях. Сайт будет закрыт в октябре.
темп.,
°C
ветер,
м/с
пор.,
м/с
влажн.,
%
обл.,
%
осадки,
мм/ч
давл.,
гПа
погр.,
м
6 октября, чт
чт600:00+9ю3997100 0.0 1012380
03:00+9ю3998100 0.0 1010375
06:00+10ю41197100 0.0 1009488
09:00+11ююз51394100 0.0 1007647
12:00+11ююз51489100 0.0 1006848
15:00+13юз61382100 0.1 10041194
18:00+13зюз8177844 0.4 10041465
21:00+10зюз5138459 0.4 1008974
7 октября, пт
пт700:00+11зюз71372100 0.1 10091193
03:00+11зюз61471100 0.1 10101557
06:00+11зюз61473100 0.0 10101597
09:00+11зюз61576100 0.1 10111727
12:00+12з7157147 0.3 10131621
15:00+14з614650 0.3 10141491
18:00+12юз41076100 0.0 1015559
21:00+11юз5128296 0.0 1015870
8 октября, сб
сб800:00+11юз51383100 0.0 1014964
03:00+11юз61382100 0.0 1013822
06:00+9ююз51476100 0.0 1012688
09:00+9ююз51575100 0.0 1010681
12:00+12ююз61465100 0.0 1009853
15:00+13ююз61363100 0.0 10071115
18:00+12юз61370100 0.0 10061021
21:00+11юз51284100 0.6 1006972
9 октября, вс
вс900:00+10юз41090100 0.7 1007595
03:00+9зюз3992100 0.8 1007440
06:00+8зюз389747 0.0 1008347
09:00+8з378885 0.0 1009441
12:00+10з46757 0.0 1010698
15:00+12з59632 0.2 10111374
18:00+8з410735 0.0 1014605
21:00+7зюз31183100 0.0 1015384
10 октября, пн
пн1000:00+7зюз4147740 0.0 1015644
03:00+6юз4129438 0.0 1015515
06:00+8юз5119098 0.0 1015626
09:00+9юз41189100 0.0 1016678
12:00+10юз51082100 0.0 1016704
15:00+10юз51079100 0.0 1015742
18:00+10ююз51279100 0.0 1014792
21:00+9ююз61575100 0.0 1012810